Hourly Weather Allassac

Today, 1 December, Tuesday

Time Temperature Precipitation Wind Pressure Humidity
00:00 +3°C° 0 mm 0 mps 743 mmHg 49%
01:00 +3°C° 0 mm 0 mps 743 mmHg 52%
02:00 +4°C° 0 mm 0 mps 742 mmHg 54%
03:00 +4°C° 0 mm 0 mps 742 mmHg 57%
04:00 +4°C° 0 mm 0 mps 742 mmHg 62%
05:00 +5°C° 0 mm 1 mps 742 mmHg 67%
06:00 +5°C° 0 mm 1 mps 741 mmHg 71%
07:00 +5°C° 0.2 mm 1 mps 741 mmHg 78%
08:00 +5°C° 0.2 mm 1 mps 741 mmHg 84%
09:00 +5°C° 0.2 mm 1 mps 741 mmHg 91%
10:00 +6°C° 0 mm 1 mps 740 mmHg 92%
11:00 +7°C° 0 mm 1 mps 740 mmHg 93%
12:00 +7°C° 0 mm 1 mps 740 mmHg 94%
13:00 +7°C° 0 mm 1 mps 740 mmHg 88%
14:00 +7°C° 0 mm 2 mps 739 mmHg 83%
15:00 +7°C° 0 mm 2 mps 739 mmHg 78%
16:00 +6°C° 0 mm 2 mps 739 mmHg 81%
17:00 +5°C° 0 mm 2 mps 739 mmHg 84%
18:00 +4°C° 0 mm 2 mps 739 mmHg 87%
19:00 +4°C° 0 mm 2 mps 739 mmHg 88%
20:00 +4°C° 0 mm 2 mps 739 mmHg 89%
21:00 +4°C° 0 mm 2 mps 739 mmHg 90%
22:00 +3°C° 0 mm 2 mps 739 mmHg 91%
23:00 +3°C° 0 mm 2 mps 738 mmHg 92%

Tomorrow, 2 December, Wednesday

Time Temperature Precipitation Wind Pressure Humidity
00:00 +3°C° 0 mm 2 mps 738 mmHg 92%
01:00 +3°C° 0 mm 2 mps 738 mmHg 93%
02:00 +3°C° 0 mm 2 mps 738 mmHg 93%
03:00 +2°C° 0 mm 2 mps 737 mmHg 94%
04:00 +3°C° 0 mm 2 mps 737 mmHg 92%
05:00 +3°C° 0 mm 2 mps 737 mmHg 90%
06:00 +3°C° 0 mm 2 mps 737 mmHg 89%
07:00 +3°C° 0.1 mm 2 mps 737 mmHg 90%
08:00 +3°C° 0.1 mm 2 mps 737 mmHg 91%
09:00 +3°C° 0.1 mm 2 mps 737 mmHg 92%
10:00 +4°C° 0 mm 2 mps 737 mmHg 91%
11:00 +4°C° 0 mm 2 mps 737 mmHg 91%
12:00 +5°C° 0 mm 2 mps 737 mmHg 90%
13:00 +5°C° 0 mm 2 mps 736 mmHg 89%
14:00 +4°C° 0 mm 3 mps 736 mmHg 88%
15:00 +4°C° 0 mm 3 mps 736 mmHg 87%
16:00 +5°C° 0 mm 2 mps 736 mmHg 88%
17:00 +4°C° 0 mm 2 mps 736 mmHg 90%
18:00 +4°C° 0 mm 2 mps 736 mmHg 91%
19:00 +5°C° 0 mm 1 mps 736 mmHg 92%
20:00 +5°C° 0 mm 1 mps 737 mmHg 93%
21:00 +5°C° 0 mm 1 mps 737 mmHg 94%
22:00 +5°C° 0 mm 1 mps 736 mmHg 94%
23:00 +4°C° 0 mm 1 mps 736 mmHg 95%

Day after tomorrow, 3 December, Thursday

Time Temperature Precipitation Wind Pressure Humidity
00:00 +4°C° 0 mm 1 mps 736 mmHg 96%
01:00 +4°C° 0 mm 1 mps 735 mmHg 97%
02:00 +3°C° 0 mm 1 mps 735 mmHg 97%
03:00 +3°C° 0 mm 1 mps 734 mmHg 98%
04:00 +3°C° 0 mm 1 mps 733 mmHg 97%
05:00 +3°C° 0 mm 1 mps 733 mmHg 97%
06:00 +3°C° 0 mm 1 mps 732 mmHg 96%
07:00 +3°C° 0 mm 1 mps 732 mmHg 96%
08:00 +4°C° 0 mm 1 mps 731 mmHg 95%
09:00 +4°C° 0 mm 1 mps 731 mmHg 94%
10:00 +4°C° 0.6 mm 1 mps 730 mmHg 95%
11:00 +3°C° 0.6 mm 2 mps 729 mmHg 96%
12:00 +4°C° 0.6 mm 2 mps 728 mmHg 97%
13:00 +4°C° 0.2 mm 2 mps 727 mmHg 97%
14:00 +4°C° 0.2 mm 2 mps 726 mmHg 97%
15:00 +4°C° 0.2 mm 2 mps 725 mmHg 97%
16:00 +5°C° 1.4 mm 2 mps 724 mmHg 97%
17:00 +5°C° 1.4 mm 2 mps 723 mmHg 97%
18:00 +5°C° 1.4 mm 2 mps 722 mmHg 98%
19:00 +4°C° 1.4 mm 3 mps 721 mmHg 97%
20:00 +5°C° 1.4 mm 3 mps 720 mmHg 97%
21:00 +5°C° 1.4 mm 4 mps 719 mmHg 96%
22:00 +5°C° 2 mm 4 mps 718 mmHg 96%
23:00 +5°C° 2 mm 5 mps 717 mmHg 95%

4 December, Friday

Time Temperature Precipitation Wind Pressure Humidity
00:00 +5°C° 2 mm 5 mps 717 mmHg 95%
01:00 +3°C° 2.1 mm 5 mps 716 mmHg 95%
02:00 +3°C° 2.1 mm 5 mps 714 mmHg 95%
03:00 +3°C° 2.1 mm 6 mps 713 mmHg 94%
04:00 +3°C° 1.4 mm 5 mps 713 mmHg 94%
05:00 +3°C° 1.4 mm 5 mps 713 mmHg 94%
06:00 +4°C° 1.4 mm 4 mps 713 mmHg 93%
07:00 +4°C° 0.5 mm 4 mps 713 mmHg 92%
08:00 +4°C° 0.5 mm 4 mps 714 mmHg 91%
09:00 +3°C° 0.5 mm 3 mps 714 mmHg 89%
10:00 +4°C° 0.3 mm 3 mps 714 mmHg 87%
11:00 +4°C° 0.3 mm 4 mps 714 mmHg 85%
12:00 +5°C° 0.3 mm 4 mps 714 mmHg 82%
13:00 +4°C° 0.6 mm 4 mps 714 mmHg 87%
14:00 +3°C° 0.6 mm 4 mps 714 mmHg 91%
15:00 +2°C° 0.6 mm 3 mps 714 mmHg 95%
16:00 +2°C° 0.3 mm 3 mps 714 mmHg 95%
17:00 +3°C° 0.3 mm 2 mps 715 mmHg 95%
18:00 +3°C° 0.3 mm 2 mps 715 mmHg 96%
19:00 +3°C° 0 mm 1 mps 716 mmHg 96%
20:00 +3°C° 0 mm 1 mps 716 mmHg 97%
21:00 +3°C° 0 mm 1 mps 717 mmHg 98%
22:00 +3°C° 0 mm 1 mps 717 mmHg 98%
23:00 +1°C° 0 mm 0 mps 717 mmHg 98%

5 December, Saturday

Time Temperature Precipitation Wind Pressure Humidity
00:00 +1°C° 0 mm 0 mps 718 mmHg 97%
01:00 +1°C° 0 mm 0 mps 718 mmHg 97%
02:00 +2°C° 0 mm 1 mps 718 mmHg 97%
03:00 +1°C° 0 mm 1 mps 718 mmHg 97%
04:00 +1°C° 0.1 mm 1 mps 718 mmHg 98%
05:00 +1°C° 0.1 mm 1 mps 718 mmHg 98%
06:00 +1°C° 0.1 mm 1 mps 718 mmHg 98%
07:00 +1°C° 0.4 mm 2 mps 718 mmHg 97%
08:00 +1°C° 0.4 mm 2 mps 718 mmHg 97%
09:00 +2°C° 0.4 mm 2 mps 719 mmHg 96%
10:00 +3°C° 0.1 mm 2 mps 719 mmHg 95%
11:00 +3°C° 0.1 mm 2 mps 719 mmHg 94%
12:00 +5°C° 0.1 mm 1 mps 719 mmHg 92%
13:00 +5°C° 0.1 mm 1 mps 719 mmHg 92%
14:00 +5°C° 0.1 mm 1 mps 719 mmHg 91%
15:00 +5°C° 0.1 mm 1 mps 719 mmHg 91%
16:00 +4°C° 0 mm 1 mps 719 mmHg 93%
17:00 +3°C° 0 mm 1 mps 719 mmHg 94%
18:00 +2°C° 0 mm 1 mps 719 mmHg 96%
19:00 +2°C° 1 mm 2 mps 719 mmHg 96%
20:00 +2°C° 1 mm 2 mps 719 mmHg 97%
21:00 +2°C° 1 mm 3 mps 719 mmHg 97%
22:00 +3°C° 1.7 mm 2 mps 719 mmHg 97%
23:00 +3°C° 1.7 mm 2 mps 719 mmHg 97%

6 December, Sunday

Time Temperature Precipitation Wind Pressure Humidity
00:00 +4°C° 1.7 mm 2 mps 719 mmHg 98%
01:00 +4°C° 1.4 mm 2 mps 719 mmHg 98%
02:00 +3°C° 1.4 mm 2 mps 719 mmHg 98%
03:00 +3°C° 1.4 mm 2 mps 719 mmHg 98%
04:00 +2°C° 0.6 mm 3 mps 719 mmHg 97%
05:00 +3°C° 0.6 mm 3 mps 719 mmHg 97%
06:00 +3°C° 0.6 mm 3 mps 719 mmHg 96%
07:00 +3°C° 1.1 mm 3 mps 720 mmHg 96%
08:00 +4°C° 1.1 mm 2 mps 720 mmHg 96%
09:00 +4°C° 1.1 mm 2 mps 721 mmHg 95%
10:00 +4°C° 0.1 mm 2 mps 721 mmHg 93%
11:00 +4°C° 0.1 mm 3 mps 722 mmHg 91%
12:00 +4°C° 0.1 mm 3 mps 722 mmHg 88%
13:00 +5°C° 0.2 mm 2 mps 722 mmHg 89%
14:00 +5°C° 0.2 mm 2 mps 723 mmHg 90%
15:00 +5°C° 0.2 mm 2 mps 723 mmHg 91%
16:00 +5°C° 0.1 mm 1 mps 724 mmHg 93%
17:00 +4°C° 0.1 mm 1 mps 724 mmHg 94%
18:00 +3°C° 0.1 mm 1 mps 725 mmHg 96%
19:00 +3°C° 0 mm 1 mps 725 mmHg 97%
20:00 +2°C° 0 mm 1 mps 726 mmHg 97%
21:00 +1°C° 0 mm 0 mps 727 mmHg 98%
22:00 +2°C° 0 mm 1 mps 727 mmHg 98%
23:00 +2°C° 0 mm 1 mps 727 mmHg 98%
Show more